Scottsbluff, NE

10:31 PM MDT on October 19, 2019 (GMT -0600)
Heilig

Weather History for KBFF - July, 2019

Change the Weather History Date:

Wednesday, July 24, 2019

  Actual Average Record
Temperature  
Mean Temperature 79 °F -  
Max Temperature 99 °F 88 °F 105 °F (2014)
Min Temperature 59 °F 59 °F 44 °F (1911)
Cooling Degree Days 14    
Growing Degree Days 29 (Base 50)    
Moisture  
Dew Point 60 °F    
Average Humidity 60    
Maximum Humidity 96    
Minimum Humidity 24    
Precipitation  
Precipitation 0.00 in - - ()
Sea Level Pressure  
Sea Level Pressure 29.92 in    
Wind  
Wind Speed 10 mph (ESE)    
Max Wind Speed 13 mph    
Max Gust Speed 21 mph    
Visibility 10 miles    
Events Rain    
Averages and records for this station are not official NWS values.
T = Trace of Precipitation, MM = Missing Value Source: NWS Daily Summary

Daily Weather History Graph

Daily Weather History Graph

Search for Another Location

Airport or City:

Astronomy

Jul. 24, 2019 Rise Set
Actual Time 5:40 AM MDT 8:21 PM MDT
Civil Twilight 5:07 AM MDT 8:53 PM MDT
Nautical Twilight 4:27 AM MDT 9:33 PM MDT
Astronomical Twilight 3:41 AM MDT 10:19 PM MDT
Moon 12:04 AM MDT (7/24) 1:00 PM MDT (7/24)
Length of Visible Light 15h 45m
Length of Day
14h 40m
Waning Gibbous, 53% of the Moon is Illuminated
Jul 24
Waning Gibbous
Jul 24
Last Quarter
Jul 31
New
Aug 7
First Quarter
Aug 15
Full

Hourly Weather History & Observations

Time (MDT) Temp. Heat Index Dew Point Humidity Pressure Visibility Wind Dir Wind Speed Gust Speed Precip Events Conditions
12:53 AM 66.0 °F - 61.0 °F 84% 30.02 in 10.0 mi ESE 11.5 mph - N/A   Clear
1:53 AM 64.0 °F - 60.1 °F 87% 30.01 in 10.0 mi ESE 10.4 mph - N/A   Clear
2:53 AM 63.0 °F - 59.0 °F 87% 29.99 in 10.0 mi East 10.4 mph - N/A   Clear
3:53 AM 61.0 °F - 59.0 °F 93% 29.99 in 10.0 mi East 8.1 mph - N/A   Clear
4:53 AM 60.1 °F - 57.9 °F 93% 29.99 in 10.0 mi ESE 8.1 mph - N/A   Clear
5:53 AM 59.0 °F - 57.9 °F 96% 30.00 in 7.0 mi ESE 6.9 mph - N/A   Clear
6:53 AM 62.1 °F - 59.0 °F 90% 30.00 in 10.0 mi ESE 10.4 mph - N/A   Clear
7:53 AM 64.9 °F - 59.0 °F 81% 30.01 in 10.0 mi ESE 12.7 mph - N/A   Clear
8:53 AM 70.0 °F - 60.1 °F 71% 30.00 in 10.0 mi ESE 10.4 mph - N/A   Clear
9:53 AM 73.9 °F - 62.1 °F 66% 29.98 in 10.0 mi ESE 10.4 mph - N/A   Clear
10:53 AM 79.0 °F - 64.0 °F 60% 29.96 in 10.0 mi ESE 10.4 mph - N/A   Clear
11:53 AM 84.9 °F 86.6 °F 64.9 °F 51% 29.93 in 10.0 mi East 10.4 mph - N/A   Clear
12:53 PM 89.1 °F 92.1 °F 66.9 °F 48% 29.90 in 10.0 mi East 12.7 mph - N/A   Clear
1:53 PM 93.0 °F 96.4 °F 66.9 °F 42% 29.87 in 10.0 mi East 12.7 mph - N/A   Clear
2:53 PM 98.1 °F 96.4 °F 55.0 °F 24% 29.84 in 10.0 mi ESE 12.7 mph - N/A   Clear
3:53 PM 97.0 °F 95.0 °F 55.0 °F 24% 29.83 in 10.0 mi ESE 10.4 mph - N/A   Clear
4:53 PM 95.0 °F 92.7 °F 54.0 °F 25% 29.82 in 10.0 mi SSE 9.2 mph 20.7 mph N/A   Clear
5:53 PM 88.0 °F 86.5 °F 55.9 °F 34% 29.84 in 10.0 mi SW 12.7 mph - N/A   Mostly Cloudy
6:09 PM 87.1 °F 85.7 °F 55.9 °F 35% 29.96 in 10.0 mi SSW 9.2 mph 18.4 mph 0.00 in Rain Light Rain
6:53 PM 87.1 °F 84.9 °F 53.1 °F 31% 29.83 in 10.0 mi West 6.9 mph - 0.00 in   Scattered Clouds
7:53 PM 82.0 °F 81.7 °F 57.0 °F 42% 29.88 in 10.0 mi NNW 12.7 mph 19.6 mph 0.00 in   Partly Cloudy
8:53 PM 75.9 °F - 60.1 °F 58% 29.89 in 10.0 mi West 6.9 mph - 0.00 in   Scattered Clouds
9:53 PM 75.9 °F - 59.0 °F 56% 29.85 in 10.0 mi ESE 11.5 mph - N/A   Clear
10:53 PM 73.0 °F - 61.0 °F 66% 29.88 in 10.0 mi East 6.9 mph - N/A   Partly Cloudy
11:53 PM 72.0 °F - 62.1 °F 71% 29.87 in 10.0 mi ESE 5.8 mph - N/A   Clear